Temperature
18 19 19 19 19 19 19 19 19 19 19 19 19 19 19 19 19 19 19 19 19 19 19 19 19 19 19 19 19 19 19 19 19 18 18 18 18 18 18 18 18 18 18
19 19 19 19 19 19 19 19 19 19 19 19 19 19 19 19 19 19 19 19 19 19 19 19 19 19 19 19 19 19 19 19 18 18 18 18 18 18 18 18 18 18 18
19 18 18 19 19 19 19 19 19 19 19 19 19 19 19 19 19 19 19 19 19 19 19 19 19 19 19 19 19 19 19 19 18 18 18 18 18 18 18 18 18 18 18
18 18 18 18 18 18 18 18 18 18 18 18 18 18 18 18 19 19 19 19 19 19 19 19 19 19 19 19 19 19 19 18 18 18 18 18 18 18 18 18 18 18 18
18 18 18 18 18 18 18 18 18 18 18 18 18 18 18 18 18 18 18 18 18 18 18 18 18 18 18 19 18 19 18 18 18 18 18 18 18 18 18 18 18 18 18
18 18 18 18 18 18 18 18 18 18 18 18 18 18 18 18 18 18 18 18 18 18 18 18 18 18 18 18 18 18 18 18 18 18 18 18 18 18 18 18 18 18 18
18 18 18 18 18 18 18 17 17 17 17 17 17 17 17 17 17 17 17 17 17 17 17 18 18 18 18 18 18 18 18 18 18 18 18 18 18 18 18 18 18 18 18
18 18 18 18 18 17 17 17 17 17 17 17 17 17 17 17 17 17 17 17 17 17 17 17 17 17 17 17 18 18 18 18 18 18 18 18 18 18 18 18 18 18 18
18 18 18 18 17 17 17 17 17 16 16 16 16 16 16 16 16 16 16 16 17 17 17 17 17 17 17 17 17 17 18 17 18 18 18 18 18 18 18 18 18 18 18
18 18 18 18 17 17 17 17 16 16 16 16 16 16 15 16 16 16 16 16 16 16 16 16 16 17 17 17 17 17 17 17 17 18 18 18 18 18 18 18 18 18 18
18 18 18 18 17 17 17 16 16 16 16 15 15 15 15 15 15 15 15 15 16 16 16 16 16 16 16 17 17 17 17 17 17 17 17 18 18 18 18 18 18 18 18
18 18 18 18 17 17 17 16 16 16 16 15 15 15 15 15 15 15 15 15 15 15 15 16 16 16 16 16 16 16 17 17 17 17 17 17 17 18 18 18 18 18 18
19 18 18 18 17 17 17 16 16 16 16 15 15 15 15 15 15 15 15 15 15 15 15 15 15 15 16 16 16 16 16 17 17 17 17 17 17 17 17 18 18 18 18
19 19 18 18 17 17 17 16 16 16 16 15 15 15 15 15 15 15 15 15 15 15 15 15 15 15 15 16 16 16 16 16 17 17 17 17 17 17 17 17 18 18 18
19 19 18 18 17 17 17 16 16 16 16 15 15 15 15 15 15 14 14 15 15 15 15 15 15 15 15 15 15 16 16 16 16 17 17 17 17 17 17 17 18 18 18
20 19 19 18 18 17 17 16 16 16 15 15 15 15 14 14 14 14 14 14 14 14 14 15 15 15 15 15 15 15 16 16 16 16 17 17 17 17 17 17 17 17 18
20 19 19 18 18 17 17 16 16 15 15 15 15 14 14 14 14 14 14 14 14 14 14 14 14 15 15 15 15 15 15 16 16 16 16 17 17 17 17 17 17 17 18
20 19 19 18 18 17 17 16 16 15 15 15 14 14 14 14 14 14 14 14 14 14 14 14 14 14 15 15 15 15 15 15 16 16 16 16 17 17 17 17 17 17 17
20 20 19 18 18 17 16 16 15 15 15 14 14 14 14 14 14 13 13 13 14 14 14 14 14 14 14 15 15 15 15 15 16 16 16 16 16 17 17 17 17 17 17
20 20 19 18 18 17 16 16 15 15 15 14 14 14 14 14 13 13 13 13 13 13 13 14 14 14 14 15 15 15 15 15 15 16 16 16 16 16 17 17 17 17 17
20 20 19 18 18 17 16 16 15 15 14 14 14 14 14 13 13 13 13 13 13 13 13 13 14 14 14 15 15 15 15 15 15 15 16 16 16 16 16 17 17 17 17
20 20 19 18 18 17 16 16 15 15 14 14 14 14 13 13 13 13 13 13 13 13 13 13 13 14 14 14 14 15 15 15 15 15 16 16 16 16 16 17 17 17 17
20 20 19 19 18 17 16 16 15 15 14 14 14 14 13 13 13 13 13 13 13 13 13 13 13 13 14 14 14 14 15 15 15 15 15 15 16 16 16 16 16 17 17
21 20 19 19 18 17 17 16 15 15 14 14 14 14 13 13 13 13 13 13 13 13 13 13 13 13 13 14 14 14 14 14 15 15 15 15 15 16 16 16 16 16 17
21 20 19 19 18 17 17 16 15 15 14 14 14 14 13 13 13 13 13 13 13 13 13 13 13 13 13 13 14 14 14 14 14 15 15 15 15 15 16 16 16 16 16
20 20 19 19 18 17 17 16 15 15 14 14 14 14 14 13 13 13 13 13 13 13 13 13 13 13 13 13 13 13 14 14 14 14 14 14 15 15 15 15 16 16 16
Wind_Speed
4 6 11 10 9 9 9 8 9 9 9 9 9 8 8 8 8 7 7 7 7 7 7 7 7 7 7 7 7 6 6 7 7 6 6 6 5 6 7 8 8 7 9
8 9 11 10 10 9 8 8 8 7 7 7 7 6 6 6 6 6 5 6 5 5 5 5 5 5 5 5 5 5 5 5 5 5 4 4 4 5 6 7 7 7 9
10 9 11 11 10 9 8 7 7 6 6 6 5 5 5 5 4 4 4 4 4 4 3 3 3 3 3 3 3 3 4 5 5 5 3 2 3 4 6 6 7 8 8
10 10 10 11 10 9 8 7 6 6 5 5 4 4 4 3 3 2 1 2 2 2 2 2 2 2 1 1 2 2 3 4 5 5 3 1 2 5 6 7 7 7 7
9 10 11 11 10 9 8 7 6 5 4 4 3 2 2 1 0 0 1 1 1 1 1 1 1 1 1 1 1 2 3 4 5 4 2 2 3 5 7 7 7 7 7
9 10 11 12 11 9 8 7 5 4 3 2 1 0 1 1 2 2 3 3 3 2 2 2 1 1 2 2 2 3 4 4 4 3 0 2 4 6 7 6 7 7 8
8 8 10 11 10 9 7 6 5 3 2 1 1 2 2 3 4 5 5 5 5 5 4 4 3 2 2 3 3 4 5 5 3 1 0 3 5 7 7 7 7 7 8
9 8 9 11 10 9 7 6 4 3 1 0 1 3 3 4 5 6 6 6 6 6 6 5 5 4 4 4 4 5 6 6 3 1 1 3 6 8 8 8 8 8 8
8 7 7 8 9 8 7 6 5 3 2 1 2 4 5 6 6 7 7 7 7 7 7 7 7 7 7 7 7 7 7 6 3 2 3 3 7 9 9 8 8 8 8
7 7 6 7 7 7 7 6 5 4 3 2 4 5 6 6 7 8 8 8 8 8 8 8 8 8 8 8 9 8 7 5 3 3 3 4 7 9 9 9 8 8 8
7 6 6 5 6 7 7 6 4 3 3 3 4 6 6 6 7 7 8 8 9 8 9 8 8 8 9 9 8 8 7 4 3 4 4 5 8 9 10 10 9 9 9
7 6 6 6 5 5 5 4 3 2 2 2 3 3 3 4 5 4 5 7 8 8 9 9 8 8 7 5 6 6 4 5 4 4 5 6 7 10 10 10 10 10 10
7 7 5 5 4 4 2 2 2 1 1 1 1 1 2 3 4 4 4 5 5 6 5 6 6 4 3 3 3 4 5 5 4 5 6 8 7 8 10 11 10 10 11
7 7 6 6 5 3 3 1 2 1 0 0 1 1 2 1 2 2 2 3 3 3 3 3 2 3 3 4 4 3 4 4 4 5 7 9 8 8 10 10 11 11 11
8 7 7 7 6 4 3 1 2 1 1 1 2 3 3 1 2 2 2 3 3 3 2 2 2 2 3 2 3 3 3 4 5 5 5 7 9 8 9 10 11 11 11
9 8 7 8 7 6 4 3 2 1 2 3 3 4 5 4 2 3 3 3 3 3 3 2 2 2 2 2 3 3 3 3 4 4 5 6 9 9 9 10 11 12 12
10 9 8 8 7 7 5 4 3 2 4 3 3 5 6 6 4 3 3 3 3 4 4 3 2 2 2 2 2 3 2 2 3 3 4 5 6 8 10 11 12 13 13
11 9 8 9 8 6 5 4 2 3 3 3 3 5 6 6 5 3 3 3 3 4 3 2 2 2 2 2 2 3 2 2 2 3 3 4 4 5 8 11 12 13 13
12 10 8 9 8 6 5 4 3 3 3 3 3 3 4 5 5 3 2 3 3 3 3 3 2 1 2 3 3 2 1 2 2 3 3 3 3 4 6 9 11 12 13
11 10 9 8 8 6 4 4 3 3 2 1 2 2 3 3 4 3 2 3 3 3 3 3 2 2 1 2 2 2 2 2 1 2 2 2 1 3 4 5 7 9 12
10 10 9 9 7 5 3 3 2 1 0 0 0 1 2 2 3 3 2 3 3 3 3 3 2 2 2 2 2 3 3 2 0 1 1 1 0 1 2 3 4 5 7
11 11 10 10 8 6 4 3 3 2 1 1 1 0 0 0 1 2 2 2 3 2 4 4 3 2 2 2 2 2 3 4 3 1 0 1 0 1 1 2 3 4 4
12 12 11 10 9 7 6 4 3 3 3 2 1 1 2 1 0 1 2 2 2 2 2 2 2 2 2 2 2 2 2 0 2 3 2 1 0 0 1 1 2 3 5
12 11 11 10 9 8 7 6 5 3 2 3 2 2 2 2 1 1 1 2 2 2 2 2 2 1 1 1 2 1 1 2 1 1 2 2 0 0 0 1 1 2 3
11 11 11 10 9 8 7 7 6 4 3 2 1 1 1 2 2 1 1 1 2 1 1 3 2 2 1 1 1 1 2 2 2 2 1 3 2 2 1 1 1 1 2
10 10 10 10 9 8 8 7 7 6 4 3 2 1 1 2 2 2 1 0 0 0 1 2 2 2 2 2 2 2 1 1 1 2 1 1 1 2 2 1 0 1 1
Wind_Direction
147 157 143 135 129 123 118 117 116 113 112 111 109 107 105 102 98 96 95 90 88 88 84 81 78 78 76 71 65 61 56 55 56 57 57 62 74 78 85 91 87 82 78
151 149 141 134 131 128 124 121 120 120 117 114 112 112 110 109 106 104 102 97 92 92 90 86 81 77 77 70 62 55 47 43 43 43 47 58 81 88 96 102 94 92 84
137 137 134 131 129 128 126 123 121 120 119 118 117 116 114 112 108 106 105 105 100 98 97 96 93 84 77 70 57 43 32 28 24 21 36 81 115 112 110 110 107 100 94
133 132 131 130 127 125 124 120 118 118 118 117 114 111 110 111 117 117 117 115 110 109 110 113 108 106 92 69 43 19 7 8 9 11 39 120 149 129 122 119 113 104 99
132 134 135 132 130 128 126 124 122 117 117 120 119 116 117 126 153 220 261 259 230 174 155 149 157 197 216 244 302 324 335 343 357 11 48 131 150 143 134 128 120 112 107
138 141 142 138 135 134 132 129 126 123 119 119 113 85 285 280 284 282 275 273 264 249 244 238 230 235 244 255 268 291 308 320 346 11 30 166 166 154 145 139 131 125 116
147 150 149 144 142 139 136 133 129 126 117 108 313 303 296 292 293 290 283 277 269 259 254 249 239 247 256 259 264 273 286 300 317 341 250 184 181 165 155 152 142 135 129
150 154 155 154 153 149 146 144 144 145 144 228 305 308 309 302 298 296 288 281 277 269 262 256 251 250 255 260 260 263 270 283 305 333 270 202 195 175 166 161 155 146 140
151 152 160 163 162 163 164 166 166 171 195 265 302 308 306 304 299 293 284 281 278 276 274 267 260 256 255 256 257 260 267 273 286 292 269 227 199 180 173 166 160 155 150
157 162 169 174 174 175 182 187 185 196 222 262 294 300 299 304 303 294 282 276 275 277 278 275 269 263 260 260 258 259 267 272 275 288 268 231 200 184 179 173 168 163 159
161 173 175 175 181 185 194 202 194 207 237 265 293 300 302 307 308 299 282 273 274 281 284 281 276 271 265 263 262 264 269 257 261 276 261 239 210 192 186 180 175 171 167
172 178 177 174 173 182 190 188 200 215 238 273 294 304 311 319 320 323 298 288 285 289 290 286 284 283 275 256 258 263 254 241 244 260 258 248 218 197 189 185 181 176 173
178 166 161 154 155 164 161 167 190 210 245 290 303 309 349 356 350 357 346 324 316 313 309 299 301 296 275 247 241 240 237 234 237 251 258 250 227 203 194 190 187 181 178
165 159 149 141 142 150 144 145 143 146 240 340 327 41 49 24 359 346 344 333 330 320 309 298 293 291 278 258 244 236 236 234 233 243 248 241 226 215 204 196 193 187 182
158 152 145 138 137 133 110 92 109 123 110 92 50 42 54 42 4 345 341 353 344 333 313 301 302 298 292 275 260 243 236 234 231 230 241 241 227 220 212 203 197 194 190
162 153 145 137 135 124 110 99 96 106 93 78 58 48 53 47 24 11 7 359 346 344 333 309 299 291 287 277 275 265 240 234 233 225 228 243 236 226 217 209 204 200 197
164 157 152 141 131 121 110 96 99 94 98 84 70 60 57 54 42 28 18 360 340 351 360 358 336 332 323 309 290 280 263 235 224 225 223 229 237 235 227 220 211 205 200
160 157 156 142 132 126 118 104 94 92 98 95 85 67 57 55 48 35 20 351 345 1 359 352 347 345 330 313 292 285 274 244 239 230 221 225 228 237 234 230 220 208 201
162 155 146 138 138 134 123 103 92 91 99 110 95 72 55 47 43 39 16 342 356 6 3 350 359 342 319 313 292 277 275 243 234 238 220 222 224 235 233 233 224 211 203
158 151 145 140 141 132 107 88 73 69 70 89 99 94 69 49 39 38 11 351 4 13 0 353 336 330 301 303 313 330 298 261 218 230 235 216 212 240 228 221 214 211 208
153 150 149 145 148 136 117 114 111 123 183 24 241 138 94 62 40 38 15 3 10 14 352 350 349 344 335 350 26 358 349 350 278 232 221 178 189 272 223 201 196 198 209
162 159 154 154 156 154 147 151 160 164 191 219 269 303 158 70 23 38 28 10 6 13 7 8 18 11 350 20 68 58 7 358 359 8 63 136 187 253 228 187 170 186 200
166 166 163 162 159 157 145 122 90 65 42 27 346 300 287 258 252 36 23 24 15 28 9 360 13 40 7 353 44 110 107 308 327 350 10 31 72 249 252 153 167 178 194
175 168 159 159 158 158 148 138 138 144 174 223 227 249 274 255 259 323 21 31 25 20 5 347 34 37 69 14 351 22 126 163 135 0 344 347 2 159 220 188 185 176 183
169 164 160 157 159 162 156 151 150 161 192 223 232 251 277 287 282 285 337 47 39 22 7 10 18 28 55 83 43 18 30 44 70 115 16 339 346 336 324 164 170 162 166
162 160 159 158 165 167 162 161 166 174 184 193 213 220 257 271 290 288 278 28 18 349 349 3 11 35 46 63 63 62 84 80 66 104 124 309 316 317 334 359 129 173 175
Height
1522 1523 1524 1524 1525 1525 1526 1526 1526 1526 1526 1527 1527 1527 1527 1527 1527 1527 1527 1527 1527 1527 1527 1526 1526 1526 1526 1526 1526 1526 1526 1525 1525 1524 1524 1523 1523 1523 1522 1522 1521 1521 1520
1522 1523 1524 1524 1525 1525 1526 1526 1526 1526 1526 1526 1526 1526 1526 1526 1527 1527 1527 1527 1527 1526 1526 1526 1526 1526 1526 1526 1526 1526 1526 1525 1525 1524 1524 1524 1523 1523 1523 1522 1522 1521 1521
1522 1523 1523 1524 1524 1525 1525 1525 1526 1526 1526 1526 1526 1525 1525 1526 1526 1526 1526 1526 1526 1526 1526 1525 1525 1525 1525 1525 1525 1525 1525 1525 1525 1525 1524 1524 1524 1523 1523 1523 1522 1522 1522
1522 1523 1524 1524 1524 1524 1525 1525 1525 1525 1525 1525 1525 1525 1525 1525 1525 1525 1525 1525 1525 1525 1525 1525 1525 1525 1525 1525 1525 1525 1525 1525 1525 1525 1524 1524 1524 1524 1523 1523 1523 1523 1522
1523 1523 1524 1524 1524 1524 1524 1524 1524 1524 1524 1523 1523 1523 1523 1523 1523 1523 1523 1523 1523 1523 1523 1524 1524 1524 1524 1524 1524 1524 1525 1525 1525 1524 1524 1524 1524 1524 1524 1524 1523 1523 1523
1523 1524 1524 1524 1524 1524 1524 1523 1523 1523 1522 1522 1522 1521 1521 1521 1521 1521 1521 1521 1521 1521 1522 1522 1522 1522 1522 1522 1523 1523 1524 1524 1524 1524 1524 1524 1524 1524 1524 1524 1524 1524 1524
1523 1524 1524 1524 1524 1524 1523 1523 1522 1521 1521 1520 1520 1519 1519 1519 1519 1519 1519 1519 1519 1519 1519 1520 1520 1520 1521 1521 1521 1522 1523 1523 1523 1523 1523 1523 1523 1523 1523 1524 1524 1524 1524
1524 1524 1524 1524 1524 1523 1523 1522 1521 1521 1520 1519 1518 1518 1517 1517 1517 1516 1517 1517 1517 1517 1517 1517 1517 1518 1518 1519 1519 1520 1521 1522 1522 1522 1523 1523 1523 1523 1523 1524 1524 1524 1525
1524 1524 1524 1524 1523 1523 1522 1522 1521 1520 1519 1518 1518 1517 1516 1515 1515 1515 1514 1514 1514 1514 1514 1514 1515 1515 1516 1516 1517 1518 1519 1520 1520 1521 1521 1522 1522 1522 1523 1523 1524 1524 1525
1524 1524 1524 1524 1523 1523 1522 1522 1521 1520 1519 1518 1517 1516 1515 1514 1514 1513 1513 1512 1512 1512 1512 1512 1512 1512 1513 1514 1515 1515 1517 1518 1518 1519 1520 1520 1521 1521 1522 1523 1523 1524 1525
1524 1524 1524 1523 1523 1522 1522 1521 1521 1520 1519 1517 1516 1515 1514 1513 1513 1512 1511 1511 1510 1510 1510 1509 1510 1510 1510 1511 1512 1513 1514 1515 1516 1517 1518 1519 1519 1520 1521 1522 1523 1523 1524
1523 1523 1523 1523 1523 1522 1522 1521 1520 1519 1518 1517 1516 1515 1514 1513 1512 1511 1510 1510 1509 1509 1508 1507 1507 1507 1508 1508 1509 1510 1511 1513 1514 1515 1516 1517 1518 1519 1520 1521 1522 1523 1524
1522 1523 1523 1523 1523 1522 1521 1521 1520 1519 1518 1517 1516 1514 1513 1512 1511 1510 1509 1509 1508 1507 1506 1506 1506 1505 1506 1506 1507 1508 1509 1510 1512 1513 1514 1516 1517 1518 1519 1520 1521 1522 1523
1522 1522 1522 1522 1522 1522 1521 1520 1519 1518 1517 1516 1515 1514 1513 1512 1510 1509 1508 1507 1507 1506 1505 1505 1504 1504 1504 1504 1504 1505 1506 1507 1509 1511 1512 1514 1515 1516 1518 1519 1520 1521 1522
1520 1521 1521 1521 1521 1521 1520 1519 1518 1518 1517 1516 1515 1513 1512 1511 1509 1508 1507 1506 1505 1504 1503 1503 1503 1502 1502 1502 1502 1503 1504 1505 1506 1508 1510 1511 1513 1515 1516 1517 1518 1520 1522
1519 1520 1520 1520 1520 1520 1519 1518 1517 1517 1516 1515 1514 1513 1511 1510 1509 1507 1506 1505 1504 1503 1502 1501 1501 1500 1500 1500 1500 1501 1502 1503 1504 1505 1507 1509 1511 1513 1514 1516 1517 1519 1520
1517 1518 1518 1518 1518 1518 1518 1517 1516 1516 1515 1514 1513 1512 1511 1509 1508 1506 1505 1503 1502 1501 1500 1500 1499 1499 1498 1498 1498 1499 1500 1500 1501 1503 1505 1507 1509 1510 1512 1514 1515 1517 1519
1516 1516 1517 1517 1517 1517 1517 1516 1515 1515 1514 1514 1513 1511 1510 1508 1507 1505 1504 1502 1501 1500 1499 1498 1497 1497 1497 1496 1496 1497 1498 1499 1499 1501 1503 1505 1506 1508 1510 1512 1513 1515 1517
1514 1515 1515 1516 1516 1516 1515 1515 1515 1514 1514 1513 1512 1511 1509 1508 1506 1504 1503 1501 1500 1498 1497 1496 1496 1495 1495 1495 1495 1495 1496 1497 1498 1499 1501 1503 1504 1506 1508 1510 1512 1514 1516
1512 1513 1514 1514 1514 1514 1514 1514 1514 1513 1513 1512 1511 1510 1508 1507 1505 1503 1502 1501 1499 1498 1496 1495 1494 1494 1493 1493 1493 1494 1494 1495 1496 1497 1499 1500 1502 1504 1506 1508 1510 1512 1514
1511 1512 1512 1513 1513 1513 1513 1513 1513 1512 1512 1511 1510 1509 1508 1506 1505 1503 1501 1500 1498 1497 1496 1495 1494 1493 1493 1492 1493 1493 1493 1494 1495 1496 1497 1499 1501 1503 1505 1507 1508 1510 1512
1508 1509 1510 1511 1511 1512 1512 1512 1512 1511 1511 1510 1509 1509 1507 1506 1504 1503 1501 1500 1498 1497 1496 1495 1494 1493 1492 1492 1492 1492 1493 1495 1494 1495 1496 1498 1499 1501 1503 1505 1507 1509 1511
1506 1507 1508 1509 1510 1510 1510 1510 1510 1510 1510 1510 1509 1508 1507 1505 1504 1502 1501 1500 1498 1497 1495 1494 1493 1493 1492 1492 1492 1493 1493 1493 1494 1495 1496 1497 1498 1500 1501 1503 1505 1507 1509
1504 1506 1507 1508 1508 1509 1509 1509 1509 1509 1509 1508 1508 1507 1506 1505 1504 1503 1501 1500 1498 1497 1495 1494 1494 1493 1493 1492 1492 1492 1493 1493 1494 1495 1496 1497 1498 1499 1501 1502 1503 1504 1507
1502 1504 1505 1506 1507 1507 1508 1508 1508 1508 1508 1507 1507 1507 1506 1505 1504 1503 1501 1500 1498 1497 1496 1495 1494 1493 1493 1492 1492 1492 1493 1493 1494 1494 1495 1496 1497 1498 1499 1500 1502 1503 1505
1500 1502 1503 1504 1505 1506 1506 1506 1506 1506 1506 1506 1506 1506 1505 1504 1504 1502 1501 1500 1498 1497 1496 1495 1494 1493 1493 1493 1492 1492 1492 1493 1493 1494 1495 1495 1496 1497 1498 1499 1500 1502 1503